| time (UTC) | temp C | wind direction | speed KPH | gust KPH | rain 1hr cm | rain 24hr cm | rain mn cm | humidity % | barometer mb |
| 20260906231704 | 24 | 41 | 3.2 | 8.0 | 0.00 | 0.00 | 0.00 | 64 | 1013.1 |
| 20260906231204 | 25 | 26 | 1.6 | 8.0 | 0.00 | 0.00 | 0.00 | 63 | 1013.1 |
| 20260906230704 | 25 | 55 | 3.2 | 8.0 | 0.00 | 0.00 | 0.00 | 63 | 1013.1 |
| 20260906225704 | 25 | 51 | 3.2 | 9.7 | 0.00 | 0.00 | 0.00 | 63 | 1013.0 |
| 20260906225204 | 25 | 45 | 4.8 | 11.3 | 0.00 | 0.00 | 0.00 | 62 | 1013.0 |
| 20260906224704 | 25 | 46 | 3.2 | 9.7 | 0.00 | 0.00 | 0.00 | 61 | 1013.1 |
| 20260906224204 | 25 | 42 | 1.6 | 8.0 | 0.00 | 0.00 | 0.00 | 61 | 1013.0 |
| 20260906223705 | 25 | 41 | 3.2 | 8.0 | 0.00 | 0.00 | 0.00 | 60 | 1012.9 |
| 20260906223205 | 25 | 69 | 4.8 | 9.7 | 0.00 | 0.00 | 0.00 | 62 | 1013.0 |
| 20260906222204 | 25 | 31 | 9.7 | 16.1 | 0.00 | 0.00 | 0.00 | 60 | 1012.9 |
| 20260906221705 | 25 | 49 | 6.4 | 14.5 | 0.00 | 0.00 | 0.00 | 60 | 1012.9 |
| 20260906220205 | 26 | 56 | 6.4 | 14.5 | 0.00 | 0.00 | 0.00 | 62 | 1012.8 |
| 20260906215704 | 26 | 70 | 4.8 | 12.9 | 0.00 | 0.00 | 0.00 | 63 | 1012.9 |
| 20260906215205 | 26 | 67 | 8.0 | 19.3 | 0.00 | 0.00 | 0.00 | 60 | 1012.8 |
| 20260906214704 | 26 | 70 | 9.7 | 19.3 | 0.00 | 0.00 | 0.00 | 63 | 1012.8 |
| 20260906214204 | 26 | 61 | 11.3 | 16.1 | 0.00 | 0.00 | 0.00 | 64 | 1012.7 |
| 20260906213704 | 26 | 72 | 9.7 | 19.3 | 0.00 | 0.00 | 0.00 | 60 | 1012.7 |
| 20260906213205 | 26 | 59 | 8.0 | 16.1 | 0.00 | 0.00 | 0.00 | 61 | 1012.7 |
| 20260906212705 | 26 | 65 | 9.7 | 19.3 | 0.00 | 0.00 | 0.00 | 60 | 1012.7 |
| 20260906212204 | 26 | 62 | 11.3 | 19.3 | 0.00 | 0.00 | 0.00 | 60 | 1012.8 |
| 20260906210204 | 27 | 39 | 6.4 | 12.9 | 0.00 | 0.00 | 0.00 | 58 | 1012.6 |
| 20260906205704 | 27 | 0 | 4.8 | 12.9 | 0.00 | 0.00 | 0.00 | 56 | 1012.6 |
| 20260906205204 | 27 | 344 | 8.0 | 16.1 | 0.00 | 0.00 | 0.00 | 56 | 1012.5 |
| 20260906204705 | 27 | 30 | 4.8 | 9.7 | 0.00 | 0.00 | 0.00 | 56 | 1012.5 |
| 20260906204204 | 27 | 31 | 8.0 | 14.5 | 0.00 | 0.00 | 0.00 | 57 | 1012.4 |
| 20260906203204 | 27 | 61 | 8.0 | 20.9 | 0.00 | 0.00 | 0.00 | 58 | 1012.4 |
| 20260906202704 | 27 | 338 | 8.0 | 14.5 | 0.00 | 0.00 | 0.00 | 55 | 1012.5 |
| 20260906202204 | 27 | 43 | 4.8 | 12.9 | 0.00 | 0.00 | 0.00 | 59 | 1012.5 |
| 20260906201705 | 27 | 353 | 4.8 | 11.3 | 0.00 | 0.00 | 0.00 | 57 | 1012.4 |
| 20260906201204 | 27 | 21 | 6.4 | 11.3 | 0.00 | 0.00 | 0.00 | 58 | 1012.4 |
| 20260906200704 | 28 | 325 | 6.4 | 14.5 | 0.00 | 0.00 | 0.00 | 56 | 1012.5 |
| 20260906200205 | 28 | 51 | 4.8 | 19.3 | 0.00 | 0.00 | 0.00 | 57 | 1012.5 |
| 20260906195705 | 27 | 60 | 4.8 | 14.5 | 0.00 | 0.00 | 0.00 | 58 | 1012.4 |
| 20260906194204 | 27 | 2 | 8.0 | 19.3 | 0.00 | 0.00 | 0.00 | 56 | 1012.6 |
| 20260906193705 | 27 | 2 | 8.0 | 14.5 | 0.00 | 0.00 | 0.00 | 57 | 1012.6 |
| 20260906193205 | 27 | 13 | 8.0 | 14.5 | 0.00 | 0.00 | 0.00 | 54 | 1012.7 |
| 20260906192705 | 27 | 339 | 11.3 | 19.3 | 0.00 | 0.00 | 0.00 | 55 | 1012.7 |
| 20260906192204 | 27 | 356 | 8.0 | 16.1 | 0.00 | 0.00 | 0.00 | 58 | 1012.7 |
| 20260906191704 | 27 | 56 | 6.4 | 16.1 | 0.00 | 0.00 | 0.00 | 58 | 1012.7 |
| 20260906191204 | 27 | 338 | 4.8 | 14.5 | 0.00 | 0.00 | 0.00 | 57 | 1012.6 |
| 20260906190705 | 27 | 345 | 9.7 | 19.3 | 0.00 | 0.00 | 0.00 | 56 | 1012.6 |
| 20260906185704 | 27 | 351 | 4.8 | 19.3 | 0.00 | 0.00 | 0.00 | 58 | 1012.8 |
| 20260906185204 | 27 | 11 | 8.0 | 22.5 | 0.00 | 0.00 | 0.00 | 58 | 1012.8 |
| 20260906184704 | 27 | 35 | 9.7 | 19.3 | 0.00 | 0.00 | 0.00 | 56 | 1012.8 |
| 20260906184204 | 27 | 34 | 6.4 | 12.9 | 0.00 | 0.00 | 0.00 | 61 | 1012.9 |
| 20260906183704 | 27 | 309 | 6.4 | 16.1 | 0.00 | 0.00 | 0.00 | 63 | 1013.0 |
| 20260906183204 | 27 | 358 | 9.7 | 19.3 | 0.00 | 0.00 | 0.00 | 61 | 1013.1 |
| 20260906182704 | 27 | 351 | 4.8 | 12.9 | 0.00 | 0.00 | 0.00 | 61 | 1013.1 |
| 20260906182204 | 27 | 30 | 8.0 | 16.1 | 0.00 | 0.00 | 0.00 | 61 | 1013.2 |
| 20260906181204 | 27 | 348 | 9.7 | 19.3 | 0.00 | 0.00 | 0.00 | 58 | 1013.2 |
| 20260906180704 | 27 | 63 | 9.7 | 16.1 | 0.00 | 0.00 | 0.00 | 63 | 1013.2 |
| 20260906180205 | 27 | 356 | 6.4 | 14.5 | 0.00 | 0.00 | 0.00 | 64 | 1013.2 |
| 20260906175704 | 27 | 17 | 11.3 | 19.3 | 0.00 | 0.00 | 0.00 | 61 | 1013.3 |
| 20260906175204 | 27 | 46 | 6.4 | 14.5 | 0.00 | 0.00 | 0.00 | 64 | 1013.3 |
| 20260906174704 | 27 | 59 | 8.0 | 19.3 | 0.00 | 0.00 | 0.00 | 60 | 1013.2 |
| 20260906174204 | 27 | 7 | 6.4 | 16.1 | 0.00 | 0.00 | 0.00 | 63 | 1013.3 |
| 20260906173704 | 27 | 48 | 9.7 | 19.3 | 0.00 | 0.00 | 0.00 | 66 | 1013.4 |
| 20260906172704 | 27 | 28 | 8.0 | 19.3 | 0.00 | 0.00 | 0.00 | 63 | 1013.5 |
| 20260906172204 | 27 | 353 | 3.2 | 14.5 | 0.00 | 0.00 | 0.00 | 63 | 1013.4 |
| 20260906171704 | 27 | 39 | 9.7 | 19.3 | 0.00 | 0.00 | 0.00 | 66 | 1013.4 |
| 20260906171204 | 27 | 359 | 6.4 | 20.9 | 0.00 | 0.00 | 0.00 | 62 | 1013.5 |
| 20260906170205 | 27 | 323 | 4.8 | 16.1 | 0.00 | 0.00 | 0.00 | 64 | 1013.5 |
| 20260906165204 | 27 | 356 | 4.8 | 14.5 | 0.00 | 0.00 | 0.00 | 63 | 1013.5 |
| 20260906164704 | 26 | 33 | 6.4 | 11.3 | 0.00 | 0.00 | 0.00 | 64 | 1013.5 |
| 20260906164204 | 26 | 14 | 8.0 | 14.5 | 0.00 | 0.00 | 0.00 | 64 | 1013.5 |
| 20260906162704 | 26 | 68 | 6.4 | 14.5 | 0.00 | 0.00 | 0.00 | 63 | 1013.4 |
| 20260906162204 | 26 | 36 | 8.0 | 19.3 | 0.00 | 0.00 | 0.00 | 66 | 1013.4 |
| 20260906161704 | 26 | 48 | 4.8 | 14.5 | 0.00 | 0.00 | 0.00 | 63 | 1013.4 |
| 20260906161205 | 26 | 23 | 4.8 | 14.5 | 0.00 | 0.00 | 0.00 | 66 | 1013.3 |
| 20260906160704 | 26 | 0 | 8.0 | 14.5 | 0.00 | 0.00 | 0.00 | 66 | 1013.4 |
| 20260906160204 | 26 | 13 | 3.2 | 12.9 | 0.00 | 0.00 | 0.00 | 69 | 1013.7 |
| 20260906154204 | 25 | 334 | 8.0 | 16.1 | 0.00 | 0.00 | 0.00 | 67 | 1013.8 |
| 20260906153704 | 25 | 5 | 8.0 | 16.1 | 0.00 | 0.00 | 0.00 | 66 | 1013.9 |
| 20260906152704 | 25 | 1 | 9.7 | 14.5 | 0.00 | 0.00 | 0.00 | 66 | 1013.6 |
| 20260906152204 | 26 | 346 | 8.0 | 14.5 | 0.00 | 0.00 | 0.00 | 68 | 1013.5 |
| 20260906151705 | 25 | 21 | 4.8 | 16.1 | 0.00 | 0.00 | 0.00 | 66 | 1013.5 |
| 20260906150704 | 25 | 16 | 4.8 | 11.3 | 0.00 | 0.00 | 0.00 | 67 | 1013.4 |
| 20260906150204 | 25 | 37 | 6.4 | 12.9 | 0.00 | 0.00 | 0.00 | 69 | 1013.5 |
| 20260906144704 | 25 | 33 | 9.7 | 16.1 | 0.00 | 0.00 | 0.00 | 68 | 1013.5 |
| 20260906144204 | 25 | 11 | 4.8 | 12.9 | 0.00 | 0.00 | 0.00 | 69 | 1013.4 |
| 20260906143704 | 25 | 33 | 8.0 | 16.1 | 0.00 | 0.00 | 0.00 | 68 | 1013.4 |
| 20260906143204 | 25 | 352 | 6.4 | 19.3 | 0.00 | 0.00 | 0.00 | 70 | 1013.4 |
| 20260906142704 | 25 | 60 | 8.0 | 16.1 | 0.00 | 0.00 | 0.00 | 68 | 1013.4 |
| 20260906140704 | 25 | 53 | 4.8 | 19.3 | 0.00 | 0.00 | 0.00 | 73 | 1013.1 |
| 20260906135704 | 24 | 32 | 6.4 | 12.9 | 0.00 | 0.00 | 0.00 | 69 | 1013.2 |
| 20260906135204 | 24 | 14 | 4.8 | 19.3 | 0.00 | 0.00 | 0.00 | 70 | 1013.2 |
| 20260906132703 | 23 | 49 | 4.8 | 14.5 | 0.00 | 0.00 | 0.00 | 72 | 1012.9 |
| 20260906132204 | 23 | 354 | 6.4 | 16.1 | 0.00 | 0.00 | 0.00 | 73 | 1012.9 |
| 20260906131704 | 23 | 19 | 8.0 | 12.9 | 0.00 | 0.00 | 0.00 | 74 | 1012.8 |
| 20260906131204 | 23 | 344 | 6.4 | 16.1 | 0.00 | 0.00 | 0.00 | 71 | 1012.9 |
| 20260906130204 | 23 | 3 | 8.0 | 14.5 | 0.00 | 0.00 | 0.00 | 72 | 1013.0 |
| 20260906125704 | 23 | 353 | 8.0 | 16.1 | 0.00 | 0.00 | 0.00 | 73 | 1012.9 |
| 20260906124704 | 23 | 41 | 4.8 | 12.9 | 0.00 | 0.00 | 0.00 | 73 | 1012.9 |
| 20260906124204 | 22 | 29 | 4.8 | 11.3 | 0.00 | 0.00 | 0.00 | 74 | 1012.8 |
| 20260906123704 | 22 | 19 | 6.4 | 11.3 | 0.00 | 0.00 | 0.00 | 74 | 1012.8 |
| 20260906123204 | 22 | 32 | 6.4 | 11.3 | 0.00 | 0.00 | 0.00 | 75 | 1012.9 |
| 20260906122704 | 22 | 55 | 4.8 | 14.5 | 0.00 | 0.00 | 0.00 | 75 | 1012.7 |
| 20260906122204 | 22 | 15 | 4.8 | 14.5 | 0.00 | 0.00 | 0.00 | 76 | 1012.8 |
| 20260906121704 | 22 | 17 | 6.4 | 14.5 | 0.00 | 0.00 | 0.00 | 77 | 1012.7 |
| 20260906120704 | 21 | 53 | 8.0 | 14.5 | 0.00 | 0.00 | 0.00 | 80 | 1012.7 |
| 20260906115704 | 20 | 64 | 8.0 | 14.5 | 0.00 | 0.00 | 0.00 | 83 | 1012.6 |
| 20260906114704 | 20 | 35 | 4.8 | 12.9 | 0.00 | 0.00 | 0.00 | 83 | 1012.5 |
| 20260906114204 | 20 | 47 | 4.8 | 9.7 | 0.00 | 0.00 | 0.00 | 84 | 1012.4 |
| 20260906112704 | 19 | 30 | 1.6 | 4.8 | 0.00 | 0.00 | 0.00 | 83 | 1012.3 |
| 20260906112203 | 19 | 41 | 3.2 | 8.0 | 0.00 | 0.00 | 0.00 | 83 | 1012.1 |
| 20260906111704 | 19 | 55 | 1.6 | 4.8 | 0.00 | 0.00 | 0.00 | 83 | 1012.1 |
| 20260906110704 | 19 | 56 | 1.6 | 4.8 | 0.00 | 0.00 | 0.00 | 83 | 1012.1 |
| 20260906110204 | 19 | 42 | 3.2 | 4.8 | 0.00 | 0.00 | 0.00 | 83 | 1012.0 |
| 20260906105204 | 19 | 58 | 6.4 | 9.7 | 0.00 | 0.00 | 0.00 | 83 | 1011.9 |
| 20260906104204 | 19 | 27 | 3.2 | 8.0 | 0.00 | 0.00 | 0.00 | 82 | 1011.6 |
| 20260906103704 | 19 | 55 | 4.8 | 11.3 | 0.00 | 0.00 | 0.00 | 82 | 1011.6 |
| 20260906103204 | 19 | 53 | 4.8 | 8.0 | 0.00 | 0.00 | 0.00 | 81 | 1011.5 |
| 20260906102704 | 19 | 49 | 3.2 | 9.7 | 0.00 | 0.00 | 0.00 | 81 | 1011.4 |
| 20260906102204 | 19 | 15 | 3.2 | 8.0 | 0.00 | 0.00 | 0.00 | 81 | 1011.4 |
| 20260906101204 | 19 | 66 | 3.2 | 4.8 | 0.00 | 0.00 | 0.00 | 81 | 1011.2 |
| 20260906100704 | 20 | 77 | 1.6 | 3.2 | 0.00 | 0.00 | 0.00 | 81 | 1011.2 |
| 20260906100204 | 20 | 73 | 1.6 | 3.2 | 0.00 | 0.00 | 0.00 | 81 | 1011.1 |
| 20260906095704 | 20 | 77 | 1.6 | 3.2 | 0.00 | 0.00 | 0.00 | 80 | 1011.0 |
| 20260906095204 | 20 | 358 | 0.0 | 1.6 | 0.00 | 0.00 | 0.00 | 80 | 1011.0 |
| 20260906094706 | 20 | 358 | 0.0 | 1.6 | 0.00 | 0.00 | 0.00 | 80 | 1010.9 |
| 20260906094205 | 20 | 354 | 0.0 | 3.2 | 0.00 | 0.00 | 0.00 | 79 | 1010.9 |
| 20260906093706 | 20 | 329 | 1.6 | 4.8 | 0.00 | 0.00 | 0.00 | 79 | 1010.8 |
| 20260906093205 | 20 | 15 | 3.2 | 4.8 | 0.00 | 0.00 | 0.00 | 79 | 1010.7 |
| 20260906092705 | 20 | 27 | 1.6 | 4.8 | 0.00 | 0.00 | 0.00 | 78 | 1010.7 |
| 20260906092206 | 20 | 39 | 1.6 | 4.8 | 0.00 | 0.00 | 0.00 | 78 | 1010.7 |
| 20260906090705 | 20 | 35 | 4.8 | 9.7 | 0.00 | 0.00 | 0.00 | 79 | 1010.4 |
| 20260906090206 | 20 | 54 | 4.8 | 8.0 | 0.00 | 0.00 | 0.00 | 79 | 1010.5 |
| 20260906085705 | 20 | 47 | 3.2 | 8.0 | 0.00 | 0.00 | 0.00 | 79 | 1010.4 |
| 20260906085205 | 20 | 24 | 3.2 | 4.8 | 0.00 | 0.00 | 0.00 | 79 | 1010.5 |
| 20260906084705 | 20 | 43 | 3.2 | 8.0 | 0.00 | 0.00 | 0.00 | 79 | 1010.4 |
| 20260906084205 | 20 | 18 | 1.6 | 3.2 | 0.00 | 0.00 | 0.00 | 78 | 1010.5 |
| 20260906083706 | 20 | 5 | 0.0 | 4.8 | 0.00 | 0.00 | 0.00 | 78 | 1010.5 |
| 20260906083205 | 20 | 48 | 1.6 | 4.8 | 0.00 | 0.00 | 0.00 | 78 | 1010.5 |
| 20260906082206 | 20 | 75 | 1.6 | 4.8 | 0.00 | 0.00 | 0.00 | 78 | 1010.4 |
| 20260906081705 | 20 | 68 | 3.2 | 8.0 | 0.00 | 0.00 | 0.00 | 78 | 1010.4 |
| 20260906081205 | 20 | 37 | 1.6 | 4.8 | 0.00 | 0.00 | 0.00 | 78 | 1010.3 |
| 20260906080705 | 20 | 44 | 1.6 | 8.0 | 0.00 | 0.00 | 0.00 | 78 | 1010.3 |
| 20260906080206 | 20 | 30 | 3.2 | 11.3 | 0.00 | 0.00 | 0.00 | 79 | 1010.2 |
| 20260906075706 | 20 | 39 | 4.8 | 11.3 | 0.00 | 0.00 | 0.00 | 80 | 1010.2 |
| 20260906075205 | 20 | 34 | 3.2 | 8.0 | 0.00 | 0.00 | 0.00 | 80 | 1010.2 |
| 20260906074705 | 20 | 58 | 4.8 | 8.0 | 0.00 | 0.00 | 0.00 | 80 | 1010.2 |
| 20260906074206 | 20 | 62 | 4.8 | 8.0 | 0.00 | 0.00 | 0.00 | 80 | 1010.1 |
| 20260906073706 | 20 | 1 | 3.2 | 4.8 | 0.00 | 0.00 | 0.00 | 80 | 1010.2 |
| 20260906073205 | 20 | 22 | 1.6 | 4.8 | 0.00 | 0.00 | 0.00 | 81 | 1010.1 |
| 20260906072706 | 20 | 350 | 1.6 | 4.8 | 0.00 | 0.00 | 0.00 | 81 | 1010.1 |
| 20260906072205 | 20 | 50 | 1.6 | 4.8 | 0.00 | 0.00 | 0.00 | 81 | 1010.0 |
| 20260906071705 | 20 | 48 | 3.2 | 8.0 | 0.00 | 0.00 | 0.00 | 81 | 1010.1 |
| 20260906071205 | 20 | 21 | 4.8 | 11.3 | 0.00 | 0.00 | 0.00 | 81 | 1010.1 |
| 20260906070206 | 20 | 10 | 1.6 | 4.8 | 0.00 | 0.00 | 0.00 | 82 | 1010.2 |
| 20260906065705 | 20 | 26 | 1.6 | 4.8 | 0.00 | 0.00 | 0.00 | 83 | 1010.2 |
| 20260906065206 | 20 | 356 | 0.0 | 3.2 | 0.00 | 0.00 | 0.00 | 83 | 1010.2 |
| 20260906064705 | 20 | 27 | 1.6 | 4.8 | 0.00 | 0.00 | 0.00 | 84 | 1010.2 |
| 20260906064205 | 20 | 52 | 1.6 | 3.2 | 0.00 | 0.00 | 0.00 | 84 | 1010.3 |
| 20260906063705 | 20 | 355 | 0.0 | 3.2 | 0.00 | 0.00 | 0.00 | 85 | 1010.2 |
| 20260906062705 | 20 | 83 | 0.0 | 4.8 | 0.00 | 0.00 | 0.00 | 86 | 1010.2 |
| 20260906062205 | 20 | 29 | 1.6 | 4.8 | 0.00 | 0.00 | 0.00 | 86 | 1010.2 |
| 20260906061206 | 19 | 42 | 1.6 | 4.8 | 0.00 | 0.00 | 0.00 | 87 | 1010.2 |
| 20260906060205 | 19 | 48 | 4.8 | 9.7 | 0.00 | 0.00 | 0.00 | 89 | 1010.2 |
| 20260906055706 | 19 | 43 | 3.2 | 4.8 | 0.00 | 0.00 | 0.00 | 89 | 1010.2 |
| 20260906055205 | 19 | 40 | 1.6 | 4.8 | 0.00 | 0.00 | 0.00 | 90 | 1010.2 |
| 20260906054705 | 19 | 5 | 1.6 | 3.2 | 0.00 | 0.00 | 0.00 | 90 | 1010.3 |
| 20260906054206 | 19 | 53 | 0.0 | 0.0 | 0.00 | 0.00 | 0.00 | 90 | 1010.3 |
| 20260906053705 | 19 | 54 | 0.0 | 0.0 | 0.00 | 0.00 | 0.00 | 90 | 1010.3 |
| 20260906053205 | 19 | 102 | 0.0 | 0.0 | 0.00 | 0.00 | 0.00 | 89 | 1010.4 |
| 20260906052706 | 19 | 102 | 0.0 | 0.0 | 0.00 | 0.00 | 0.00 | 89 | 1010.4 |
| 20260906051205 | 19 | 102 | 0.0 | 1.6 | 0.00 | 0.00 | 0.00 | 88 | 1010.5 |
| 20260906050705 | 19 | 102 | 0.0 | 3.2 | 0.00 | 0.00 | 0.00 | 88 | 1010.5 |
| 20260906045706 | 19 | 102 | 0.0 | 0.0 | 0.00 | 0.00 | 0.00 | 88 | 1010.5 |
| 20260906045205 | 20 | 102 | 0.0 | 0.0 | 0.00 | 0.00 | 0.00 | 88 | 1010.6 |
| 20260906044705 | 20 | 102 | 0.0 | 1.6 | 0.00 | 0.00 | 0.00 | 88 | 1010.6 |
| 20260906044206 | 20 | 102 | 0.0 | 1.6 | 0.00 | 0.00 | 0.00 | 89 | 1010.5 |
| 20260906043705 | 20 | 102 | 0.0 | 1.6 | 0.00 | 0.00 | 0.00 | 89 | 1010.5 |
| 20260906043205 | 20 | 102 | 0.0 | 1.6 | 0.00 | 0.00 | 0.00 | 89 | 1010.6 |
| 20260906042705 | 20 | 102 | 0.0 | 1.6 | 0.00 | 0.00 | 0.00 | 89 | 1010.6 |
| 20260906042206 | 20 | 102 | 0.0 | 0.0 | 0.00 | 0.00 | 0.00 | 88 | 1010.5 |
| 20260906041205 | 20 | 102 | 0.0 | 1.6 | 0.00 | 0.00 | 0.00 | 89 | 1010.5 |
| 20260906040705 | 20 | 102 | 0.0 | 1.6 | 0.00 | 0.00 | 0.00 | 89 | 1010.6 |
| 20260906035705 | 20 | 102 | 0.0 | 0.0 | 0.00 | 0.00 | 0.00 | 89 | 1010.7 |
| 20260906035206 | 20 | 102 | 0.0 | 0.0 | 0.00 | 0.00 | 0.00 | 89 | 1010.7 |
| 20260906034705 | 20 | 102 | 0.0 | 1.6 | 0.00 | 0.00 | 0.00 | 89 | 1010.8 |
| 20260906034205 | 20 | 102 | 0.0 | 1.6 | 0.00 | 0.00 | 0.00 | 88 | 1010.7 |
| 20260906033705 | 20 | 102 | 0.0 | 1.6 | 0.00 | 0.00 | 0.00 | 87 | 1010.7 |
| 20260906033205 | 20 | 102 | 0.0 | 1.6 | 0.00 | 0.00 | 0.00 | 87 | 1010.7 |
| 20260906032705 | 20 | 102 | 0.0 | 1.6 | 0.00 | 0.00 | 0.00 | 87 | 1010.7 |
| 20260906032205 | 20 | 102 | 1.6 | 1.6 | 0.00 | 0.00 | 0.00 | 87 | 1010.7 |
| 20260906031705 | 20 | 102 | 0.0 | 1.6 | 0.00 | 0.00 | 0.00 | 87 | 1010.7 |
| 20260906031206 | 20 | 102 | 0.0 | 0.0 | 0.00 | 0.00 | 0.00 | 86 | 1010.8 |
| 20260906030706 | 20 | 102 | 0.0 | 0.0 | 0.00 | 0.00 | 0.00 | 86 | 1010.8 |
| 20260906030205 | 20 | 102 | 0.0 | 0.0 | 0.00 | 0.00 | 0.00 | 86 | 1010.8 |
| 20260906025705 | 21 | 102 | 0.0 | 0.0 | 0.00 | 0.00 | 0.00 | 86 | 1010.7 |
| 20260906025205 | 21 | 102 | 0.0 | 0.0 | 0.00 | 0.00 | 0.00 | 88 | 1010.6 |
| 20260906024706 | 21 | 102 | 0.0 | 0.0 | 0.00 | 0.00 | 0.00 | 88 | 1010.5 |
| 20260906024205 | 21 | 102 | 0.0 | 0.0 | 0.00 | 0.00 | 0.00 | 88 | 1010.7 |
| 20260906023705 | 21 | 102 | 0.0 | 1.6 | 0.00 | 0.00 | 0.00 | 88 | 1010.7 |
| 20260906022705 | 21 | 102 | 0.0 | 0.0 | 0.00 | 0.00 | 0.00 | 87 | 1010.7 |
| 20260906022205 | 21 | 102 | 0.0 | 0.0 | 0.00 | 0.00 | 0.00 | 86 | 1010.6 |
| 20260906020705 | 21 | 102 | 0.0 | 1.6 | 0.00 | 0.00 | 0.00 | 85 | 1010.6 |
| 20260906020205 | 21 | 102 | 0.0 | 0.0 | 0.00 | 0.00 | 0.00 | 85 | 1010.5 |
| 20260906015205 | 21 | 102 | 0.0 | 0.0 | 0.00 | 0.00 | 0.00 | 84 | 1010.4 |
| 20260906014705 | 21 | 102 | 0.0 | 0.0 | 0.00 | 0.00 | 0.00 | 83 | 1010.4 |
| 20260906014205 | 21 | 102 | 0.0 | 1.6 | 0.00 | 0.00 | 0.00 | 82 | 1010.4 |
| 20260906013705 | 21 | 102 | 1.6 | 1.6 | 0.00 | 0.00 | 0.00 | 82 | 1010.2 |
| 20260906013205 | 21 | 102 | 0.0 | 1.6 | 0.00 | 0.00 | 0.00 | 81 | 1010.1 |
| 20260906012205 | 22 | 102 | 0.0 | 0.0 | 0.00 | 0.00 | 0.00 | 80 | 1010.0 |
| 20260906011705 | 22 | 102 | 0.0 | 0.0 | 0.00 | 0.00 | 0.00 | 80 | 1009.9 |
| 20260906011206 | 22 | 102 | 0.0 | 0.0 | 0.00 | 0.00 | 0.00 | 80 | 1009.9 |
| 20260906010206 | 22 | 102 | 0.0 | 0.0 | 0.00 | 0.00 | 0.00 | 79 | 1009.9 |
| 20260906005705 | 22 | 102 | 0.0 | 0.0 | 0.00 | 0.00 | 0.00 | 78 | 1009.9 |
| 20260906005206 | 22 | 102 | 0.0 | 1.6 | 0.00 | 0.00 | 0.00 | 78 | 1009.8 |
| 20260906004705 | 22 | 102 | 0.0 | 1.6 | 0.00 | 0.00 | 0.00 | 78 | 1009.8 |
| 20260906004205 | 22 | 102 | 0.0 | 0.0 | 0.00 | 0.00 | 0.00 | 77 | 1009.8 |
| 20260906003705 | 22 | 102 | 0.0 | 0.0 | 0.00 | 0.00 | 0.00 | 77 | 1009.8 |
| 20260906003206 | 22 | 102 | 0.0 | 0.0 | 0.00 | 0.00 | 0.00 | 77 | 1009.8 |
| 20260906002705 | 22 | 102 | 0.0 | 0.0 | 0.00 | 0.00 | 0.00 | 77 | 1009.7 |
| 20260906002206 | 23 | 102 | 0.0 | 1.6 | 0.00 | 0.00 | 0.00 | 76 | 1009.6 |
| 20260906001705 | 23 | 102 | 0.0 | 1.6 | 0.00 | 0.00 | 0.00 | 76 | 1009.6 |
| 20260906001205 | 23 | 102 | 0.0 | 1.6 | 0.00 | 0.00 | 0.00 | 76 | 1009.5 |
| 20260906000705 | 23 | 102 | 0.0 | 1.6 | 0.00 | 0.00 | 0.00 | 75 | 1009.4 |
| 20260906000205 | 23 | 102 | 0.0 | 0.0 | 0.00 | 0.00 | 0.00 | 75 | 1009.4 |
| 20260905235705 | 23 | 102 | 0.0 | 0.0 | 0.00 | 0.00 | 0.00 | 75 | 1009.4 |
| 20260905235205 | 23 | 102 | 0.0 | 0.0 | 0.00 | 0.00 | 0.00 | 75 | 1009.4 |
| 20260905234706 | 23 | 102 | 0.0 | 0.0 | 0.00 | 0.00 | 0.00 | 75 | 1009.4 |
| 20260905233705 | 24 | 102 | 0.0 | 0.0 | 0.00 | 0.00 | 0.00 | 73 | 1009.2 |
| 20260905233205 | 24 | 103 | 0.0 | 0.0 | 0.00 | 0.00 | 0.00 | 73 | 1009.1 |
| 20260905232705 | 24 | 103 | 0.0 | 0.0 | 0.00 | 0.00 | 0.00 | 73 | 1009.2 |
| 20260905232205 | 25 | 103 | 0.0 | 1.6 | 0.00 | 0.00 | 0.00 | 71 | 1009.1 |